8OJDFAOP Weather Reports


time (UTC)temp
C
wind
direction
speed
KPH
gust
KPH
rain 1hr
cm
rain 24hr
cm
rain mn
cm
humidity
%
barometer
mb
20260504081519 7 63 3.2 8.0 0.00 0.00 0.00 52 1011.4
20260504050004 10 298 1.6 9.7 0.00 0.00 0.00 45 1010.1
20260504044511 10 283 3.2 6.4 0.00 0.00 0.00 44 1010.2
20260504043005 11 299 3.2 6.4 0.00 0.00 0.00 43 1010.1
20260504041510 11 280 3.2 6.4 0.00 0.00 0.00 40 1010.1
20260504040010 12 253 0.0 6.4 0.00 0.00 0.00 37 1010.0
20260504034516 12 255 1.6 4.8 0.00 0.00 0.00 36 1009.7
20260504033003 11 9 0.0 1.6 0.00 0.00 0.00 39 1009.6
20260504031507 13 35 1.6 4.8 0.00 0.00 0.00 35 1009.5
20260504030010 14 294 1.6 4.8 0.00 0.00 0.00 34 1009.3
20260504024514 14 274 1.6 6.4 0.00 0.00 0.00 34 1009.2
20260504023019 16 314 1.6 12.9 0.00 0.00 0.00 30 1009.2
20260504021509 17 4 1.6 6.4 0.00 0.00 0.00 29 1009.3
20260504020005 19 335 6.4 19.3 0.00 0.00 0.00 26 1009.1
20260504014523 19 5 6.4 12.9 0.00 0.00 0.00 26 1009.3
20260504013016 20 24 6.4 17.7 0.00 0.00 0.00 25 1009.3
20260504011518 20 28 8.0 24.1 0.00 0.00 0.00 24 1009.4
20260504010004 21 29 11.3 19.3 0.00 0.00 0.00 24 1009.6
20260504004508 21 5 11.3 24.1 0.00 0.00 0.00 26 1009.4
20260504003012 22 15 9.7 20.9 0.00 0.00 0.00 23 1009.6
20260504001522 22 360 11.3 19.3 0.00 0.00 0.00 22 1009.7
20260504000022 22 7 9.7 19.3 0.00 0.00 0.00 24 1009.8
20260503234506 22 338 6.4 19.3 0.00 0.00 0.00 24 1009.8
20260503233009 21 14 6.4 12.9 0.00 0.00 0.00 25 1009.7
20260503231524 21 333 6.4 14.5 0.00 0.00 0.00 25 1009.8
20260503230026 21 5 6.4 12.9 0.00 0.00 0.00 26 1009.9
20260503224523 21 15 6.4 19.3 0.00 0.00 0.00 25 1010.0
20260503223007 21 8 8.0 17.7 0.00 0.00 0.00 26 1010.0
20260503221512 21 299 12.9 24.1 0.00 0.00 0.00 22 1010.1
20260503220015 22 289 17.7 30.6 0.00 0.00 0.00 21 1010.4
20260503214520 22 295 16.1 30.6 0.00 0.00 0.00 23 1010.6
20260503213029 22 273 19.3 33.8 0.00 0.00 0.00 21 1010.8
20260503211509 22 278 17.7 32.2 0.00 0.00 0.00 22 1010.8
20260503210016 22 239 12.9 24.1 0.00 0.00 0.00 21 1011.1
20260503204518 22 267 9.7 27.4 0.00 0.00 0.00 23 1011.6
20260503203024 21 279 14.5 25.7 0.00 0.00 0.00 21 1011.8
20260503201526 21 221 16.1 29.0 0.00 0.00 0.00 20 1012.0
20260503200026 21 245 16.1 25.7 0.00 0.00 0.00 22 1012.2
20260503194516 21 269 19.3 30.6 0.00 0.00 0.00 23 1012.5
20260503193023 20 245 14.5 30.6 0.00 0.00 0.00 24 1012.6
20260503191524 20 257 16.1 29.0 0.00 0.00 0.00 25 1012.8
20260503190015 20 281 16.1 24.1 0.00 0.00 0.00 26 1012.9
20260503184514 20 273 8.0 24.1 0.00 0.00 0.00 27 1013.2
20260503183019 20 270 8.0 20.9 0.00 0.00 0.00 27 1013.5
20260503181504 20 267 12.9 29.0 0.00 0.00 0.00 28 1013.8
20260503180010 19 262 9.7 27.4 0.00 0.00 0.00 28 1014.1
20260503174509 19 294 14.5 25.7 0.00 0.00 0.00 30 1014.2
20260503173017 18 268 9.7 27.4 0.00 0.00 0.00 28 1014.4
20260503171532 18 263 17.7 29.0 0.00 0.00 0.00 29 1014.7